Location: Bremen
(53.0793°N, 8.8017°E)
Time: 16:31:45
(UTC+01:00)

Transit 2A - Pass Details

Date: 06 December 2022
Orbit: 594 x 962 km, 66.7° (Epoch: 31 January)

Event Time Altitude Azimuth Distance (km) Brightness Sun altitude
Rises 17:36:06 0° 312° (NW) 3,235 9.6 -12.2°
Reaches altitude 10° 17:38:58 10° 296° (WNW) 2,373 9.2 -12.6°
Maximum altitude 17:42:52 20° 250° (WSW) 1,841 9.1 -13.1°
Drops below altitude 10° 17:46:59 10° 205° (SSW) 2,534 9.3 -13.7°
Sets 17:50:12 0° 190° (S) 3,526 9.8 -14.1°
